Lapse_Rate
7.9 8.0 8.1 8.0 7.9 7.7 7.7 7.6 7.5 7.4 7.2 7.1 6.9 6.7 6.5 6.3 6.1 6.0 5.8 5.8 5.8 5.9 5.9 5.9 5.8 5.9 6.0 6.0 6.1 6.3 6.2 6.3 6.3 6.2 6.2 6.0 5.9 5.7 5.8 5.7 5.6 5.5 5.5
8.1 8.2 8.3 8.1 7.8 7.7 7.8 7.6 7.4 7.3 7.1 7.0 6.7 6.6 6.4 6.2 6.1 6.0 5.9 5.8 5.8 5.7 5.8 5.9 5.8 5.9 5.9 6.0 6.0 6.1 6.1 6.2 6.2 6.1 6.2 6.2 6.1 5.8 5.6 5.7 5.6 5.4 5.4
8.1 8.2 8.3 8.3 8.0 7.8 7.6 7.5 7.4 7.3 7.2 6.9 6.6 6.4 6.2 6.1 6.1 5.9 5.9 5.8 5.7 5.7 5.7 5.8 5.8 5.8 5.8 5.8 5.9 6.0 5.9 6.0 6.0 6.0 6.0 6.1 6.1 6.0 5.8 5.6 5.5 5.5 5.5
8.1 8.2 8.2 8.2 8.1 7.8 7.7 7.5 7.4 7.2 7.0 6.7 6.5 6.1 6.1 6.1 6.0 5.9 5.8 5.7 5.7 5.6 5.5 5.6 5.7 5.8 5.7 5.7 5.7 5.7 5.9 5.7 5.7 5.8 5.8 5.8 5.7 5.6 5.7 5.7 5.5 5.5 5.4
8.0 8.0 7.9 7.9 7.8 7.7 7.6 7.4 7.3 7.1 6.9 6.5 6.1 6.0 6.0 6.0 5.8 5.9 5.8 5.7 5.6 5.6 5.6 5.6 5.7 5.7 5.6 5.6 5.6 5.6 5.6 5.6 5.6 5.4 5.4 5.4 5.3 5.4 5.4 5.3 5.4 5.5 5.6
8.1 7.9 7.9 7.8 7.7 7.6 7.4 7.3 7.2 7.0 6.8 6.4 6.2 6.0 5.9 5.8 5.8 5.8 5.8 5.7 5.6 5.5 5.5 5.6 5.6 5.6 5.5 5.4 5.3 5.2 5.2 5.2 5.2 5.3 5.2 5.1 5.0 4.9 5.0 5.2 5.3 5.3 5.4
8.1 7.9 7.9 7.8 7.6 7.5 7.4 7.2 7.0 6.9 6.6 6.3 6.1 5.9 5.9 5.9 5.8 5.7 5.6 5.5 5.4 5.5 5.5 5.5 5.4 5.3 5.2 5.2 5.2 5.1 5.0 5.0 5.0 5.0 5.0 5.0 4.9 4.8 4.7 4.8 5.0 5.3 5.1
7.9 7.9 7.8 7.7 7.5 7.3 7.1 7.0 6.9 6.7 6.4 6.1 5.9 5.8 5.9 5.9 5.9 5.7 5.6 5.3 5.4 5.4 5.4 5.2 5.2 5.2 5.1 5.1 5.0 4.9 4.9 4.8 4.7 4.7 4.7 4.7 4.6 4.6 4.5 4.4 4.5 4.7 4.9
7.8 7.8 7.5 7.4 7.2 7.1 7.0 6.9 6.7 6.5 6.3 5.9 5.7 5.8 5.8 5.9 5.8 5.8 5.6 5.5 5.3 5.3 5.3 5.1 5.1 5.0 5.0 4.9 4.8 4.7 4.7 4.7 4.6 4.6 4.6 4.6 4.4 4.3 4.2 4.2 4.1 4.1 4.3
7.6 7.5 7.3 7.2 7.1 6.9 6.8 6.6 6.5 6.3 6.0 5.9 5.9 5.9 5.9 5.9 5.9 5.8 5.7 5.6 5.3 5.1 5.0 4.9 4.9 4.8 4.8 4.6 4.6 4.6 4.6 4.6 4.5 4.4 4.4 4.4 4.3 4.3 4.2 4.1 3.9 3.8 3.7
7.2 7.1 7.0 7.0 7.0 6.9 6.7 6.5 6.3 6.1 6.0 5.9 5.9 5.9 5.9 5.9 5.9 5.9 5.6 5.3 5.0 4.8 4.7 4.6 4.6 4.5 4.4 4.3 4.3 4.3 4.3 4.3 4.4 4.4 4.4 4.6 4.5 4.4 4.2 4.1 4.0 3.9 3.7
7.4 7.4 7.2 7.1 6.8 6.7 6.5 6.3 6.1 6.0 5.9 5.8 5.8 5.8 5.8 5.8 5.8 5.7 5.4 4.9 4.6 4.5 4.4 4.4 4.3 4.3 4.3 4.2 4.2 4.3 4.3 4.5 4.7 4.8 4.8 4.9 4.7 4.6 4.6 4.2 4.1 4.0 3.9
7.6 7.3 7.2 7.0 6.7 6.5 6.3 6.1 6.0 5.9 5.9 5.8 5.7 5.6 5.6 5.4 5.2 5.0 4.8 4.6 4.5 4.4 4.3 4.3 4.4 4.4 4.4 4.4 4.5 4.6 4.7 4.7 4.7 4.8 4.8 4.9 5.0 4.9 4.8 4.6 4.4 4.4 4.2
7.3 7.1 6.9 6.7 6.5 6.4 6.2 6.1 6.0 5.9 5.8 5.6 5.4 5.2 4.9 4.8 4.6 4.5 4.4 4.4 4.5 4.4 4.5 4.5 4.5 4.6 4.7 4.8 4.8 4.7 4.6 4.6 4.6 4.7 4.7 4.7 4.8 4.8 4.8 4.8 4.7 4.5 4.4
7.2 7.0 6.7 6.6 6.5 6.4 6.2 6.0 5.8 5.6 5.3 5.1 4.8 4.6 4.4 4.4 4.3 4.3 4.3 4.3 4.3 4.4 4.5 4.6 4.7 4.7 4.7 4.6 4.6 4.6 4.6 4.6 4.6 4.6 4.6 4.6 4.5 4.6 4.6 4.6 4.7 4.6 4.4
7.2 6.9 6.9 6.7 6.5 6.1 5.8 5.6 5.3 5.0 4.7 4.5 4.4 4.3 4.2 4.2 4.2 4.3 4.4 4.4 4.5 4.6 4.7 4.7 4.7 4.7 4.6 4.4 4.4 4.3 4.4 4.4 4.4 4.5 4.6 4.5 4.4 4.5 4.5 4.6 4.6 4.5 4.6
7.0 6.9 6.7 6.4 6.1 5.7 5.2 5.0 4.7 4.5 4.4 4.2 4.2 4.2 4.2 4.2 4.4 4.5 4.6 4.7 4.7 4.7 4.7 4.6 4.5 4.5 4.4 4.4 4.4 4.4 4.3 4.4 4.4 4.5 4.4 4.5 4.6 4.5 4.5 4.5 4.5 4.6 4.6
6.9 6.8 6.5 6.1 5.6 5.1 4.8 4.5 4.3 4.2 4.2 4.2 4.1 4.2 4.4 4.6 4.7 4.7 4.8 4.8 4.8 4.8 4.8 4.7 4.6 4.5 4.6 4.6 4.6 4.7 4.6 4.5 4.5 4.4 4.1 3.9 3.9 4.0 4.0 3.9 4.0 3.9 3.9
6.8 6.5 6.1 5.7 5.2 4.9 4.5 4.3 4.2 4.2 4.1 4.1 4.3 4.5 4.7 4.8 4.8 4.8 4.7 4.6 4.6 4.7 4.7 4.7 4.7 4.9 5.0 4.7 4.5 4.3 4.3 4.2 4.1 3.9 3.8 3.7 3.6 3.6 3.5 3.7 3.9 4.1 4.4
6.4 6.1 5.6 5.1 4.7 4.5 4.3 4.3 4.2 4.2 4.3 4.6 4.7 4.7 4.7 4.8 4.7 4.7 4.7 4.6 4.6 4.7 4.9 4.9 4.6 4.4 4.2 4.0 3.9 4.0 3.9 3.8 3.7 3.7 3.7 3.8 3.9 4.1 4.3 4.5 4.7 4.9 5.3
6.2 5.7 5.1 4.7 4.5 4.3 4.3 4.4 4.5 4.6 4.7 4.8 4.7 4.7 4.8 4.7 4.7 4.6 4.5 4.5 4.5 4.6 4.6 4.4 4.3 4.1 4.2 4.1 3.9 3.7 3.5 3.4 3.5 3.7 4.1 4.6 4.7 5.0 5.3 5.5 5.5 5.6 5.7
5.8 5.1 4.7 4.5 4.4 4.5 4.5 4.5 4.7 4.7 4.8 4.8 4.9 4.8 4.8 4.6 4.4 4.5 4.7 4.7 4.4 4.2 4.0 4.0 4.0 4.1 3.9 3.6 3.6 3.8 4.1 4.5 4.6 4.9 5.1 5.2 5.2 5.4 5.6 5.8 6.1 6.2 6.2
5.3 5.0 4.7 4.8 4.7 4.8 4.9 4.9 4.9 5.0 5.0 4.9 4.8 4.9 5.1 5.0 4.9 4.7 4.4 4.2 4.0 4.0 4.0 3.9 3.8 3.9 4.0 4.4 4.8 5.0 5.2 5.3 5.2 5.4 5.5 5.4 5.5 5.8 6.0 6.0 6.0 6.1 6.3
5.2 5.0 4.9 5.0 5.1 5.2 5.3 5.2 5.2 5.0 5.1 5.3 5.3 5.1 5.0 4.8 4.5 4.4 4.3 4.3 4.1 4.0 3.9 3.9 4.2 4.7 5.2 5.6 5.7 5.9 5.9 5.7 5.5 5.4 5.3 5.5 5.7 5.9 5.9 6.1 6.1 6.2 6.4
5.1 5.0 5.1 5.2 5.0 5.2 5.2 5.1 5.3 5.5 5.5 5.4 5.2 5.1 4.9 4.8 4.7 4.6 4.4 4.2 4.0 4.0 4.3 4.8 5.2 5.5 5.9 6.0 6.0 5.8 5.5 5.1 5.2 5.5 5.8 6.1 6.3 6.5 6.6 6.6 6.6 6.7 6.9
5.5 5.3 5.2 5.0 5.2 5.3 5.4 5.5 5.5 5.4 5.4 5.3 5.1 4.9 4.9 4.8 4.6 4.4 4.3 4.3 4.5 4.7 5.0 5.4 5.6 5.9 5.9 5.9 5.8 5.7 5.3 5.0 5.4 5.9 6.1 6.2 6.5 6.7 6.9 6.9 7.0 7.0 7.1
Wind_Speed
10 8 11 11 9 8 9 8 8 7 5 2 3 2 3 2 1 5 5 4 2 2 4 3 3 3 2 2 3 2 4 3 4 3 4 3 2 2 1 1 3 4 6
8 8 10 8 11 9 9 8 8 7 5 3 2 2 3 1 2 3 4 4 2 2 3 3 2 1 2 4 3 3 3 2 4 2 1 4 4 3 3 2 2 2 4
10 8 9 8 8 9 9 9 8 8 6 5 3 3 4 3 2 1 0 2 3 2 2 3 2 2 2 2 1 1 3 2 2 5 2 3 2 3 3 3 3 4 2
7 6 7 7 8 8 8 9 8 8 6 7 4 4 3 3 3 3 2 3 4 3 2 2 1 2 2 2 1 2 1 2 2 2 2 0 2 1 4 3 3 5 2
8 7 7 9 6 8 8 8 8 7 7 6 6 4 3 2 2 2 4 2 3 5 5 3 2 2 1 1 1 1 1 1 1 1 1 2 1 0 1 3 4 3 2
7 6 6 7 6 6 7 7 8 7 7 6 6 6 5 4 3 2 2 2 2 2 4 4 3 3 3 2 1 1 0 0 1 1 0 1 1 1 0 2 3 4 4
6 6 7 7 7 8 7 6 7 6 7 7 6 6 5 5 5 4 3 3 2 2 4 4 3 2 3 4 3 2 2 2 2 2 2 2 2 1 2 1 3 2 3
7 6 6 7 8 7 7 6 7 5 6 7 7 5 5 3 3 3 3 3 3 3 3 5 4 4 4 4 3 2 2 3 3 4 4 2 3 2 2 2 2 3 2
8 8 8 8 8 7 5 3 5 4 6 7 6 5 5 5 4 3 2 2 2 2 3 4 3 3 3 4 3 3 4 3 4 5 4 3 3 3 3 2 3 3 2
8 7 7 8 8 7 6 8 7 7 6 4 2 4 5 5 4 3 2 2 2 2 1 2 2 3 3 4 3 3 3 4 4 4 5 4 3 4 3 3 3 3 4
7 7 7 7 8 9 9 8 8 9 9 8 8 8 6 5 3 2 1 0 0 2 2 2 3 3 4 4 3 4 5 5 6 5 5 6 5 4 4 3 3 4 4
8 7 7 8 8 8 8 7 7 9 7 7 9 8 9 8 8 7 7 7 6 5 5 5 5 4 4 4 4 5 5 5 6 6 5 7 3 6 5 4 5 5 5
10 8 8 7 7 6 7 8 8 8 8 9 9 10 9 9 8 7 7 7 6 6 6 6 6 6 6 5 5 4 4 5 5 5 5 6 5 5 4 4 5 4 5
10 8 7 7 7 7 7 7 8 7 7 8 8 9 8 7 7 6 7 7 6 6 6 6 6 6 6 5 5 5 5 5 5 5 6 6 6 6 6 6 6 5 4
11 9 7 6 6 6 6 6 6 6 6 7 7 6 6 6 6 6 6 6 6 6 6 6 6 6 5 3 5 5 5 6 6 6 6 6 7 11 11 6 5 5 4
11 10 8 8 7 7 6 6 6 6 6 6 6 6 6 6 6 6 6 6 6 6 5 6 5 6 4 10 12 8 5 5 5 6 7 6 9 8 14 15 13 11 7
11 10 9 7 6 6 6 6 6 5 6 6 5 5 5 5 6 6 6 6 6 5 5 6 6 6 6 12 14 13 4 5 5 6 6 7 6 8 6 11 15 13 16
12 10 8 6 6 5 6 5 6 5 6 5 5 5 5 6 6 6 5 5 4 5 5 6 6 6 6 14 16 16 7 6 7 7 7 7 8 8 9 6 7 8 7
10 8 7 6 6 6 5 6 5 5 5 4 4 4 4 4 4 5 5 5 4 4 4 5 7 7 7 15 17 14 7 7 8 7 7 6 7 14 19 11 8 8 8
11 9 7 6 7 4 5 6 4 5 4 2 2 3 4 4 5 5 6 3 4 5 5 6 6 10 7 13 18 15 6 5 5 6 6 11 10 18 20 10 6 9 9
10 7 7 6 6 5 5 5 4 2 1 2 2 4 4 5 5 5 3 4 5 5 6 7 7 7 8 9 17 17 6 4 7 6 4 4 13 16 18 19 6 7 10
8 7 6 5 5 5 4 3 1 2 2 3 4 4 5 4 5 6 5 6 6 6 6 6 7 5 6 10 12 20 20 18 6 5 5 5 13 15 19 16 17 20 18
6 5 5 5 4 4 4 3 1 1 2 4 5 5 6 5 5 5 6 4 5 4 5 5 4 5 5 4 13 19 20 19 10 3 10 20 19 20 14 15 19 20 6
7 5 5 5 3 3 4 3 4 4 4 4 5 5 4 6 4 4 3 4 4 5 6 6 5 6 7 6 5 6 7 13 11 11 9 12 17 20 15 13 10 6 6
5 4 4 3 2 4 4 4 4 4 4 4 4 4 3 4 5 4 4 4 5 5 7 7 6 8 9 8 17 16 9 8 11 14 7 5 3 5 6 6 5 5 5
4 4 4 4 3 4 4 4 4 3 3 4 3 4 4 4 4 4 5 8 13 17 18 19 15 9 18 22 23 23 23 22 21 9 5 5 5 6 7 7 7 4 7
Wind_Direction
205 157 152 138 127 135 137 144 142 160 140 121 119 111 168 164 109 132 134 121 122 82 70 49 22 43 63 6 17 356 6 343 331 7 343 354 323 355 20 34 45 20 30
146 146 143 143 153 150 150 147 153 158 161 145 159 155 154 148 145 146 130 141 116 99 78 82 54 45 76 45 35 38 351 340 12 27 33 9 339 353 311 337 7 6 27
136 142 149 157 143 149 153 155 158 163 165 156 118 77 68 58 66 58 116 203 164 157 110 82 89 77 125 101 89 55 62 8 323 22 111 16 332 327 332 317 305 352 5
104 130 158 157 162 167 149 154 159 160 156 155 140 136 152 162 209 179 168 187 182 166 152 117 100 110 125 97 127 129 94 98 23 348 27 100 167 4 332 327 336 341 318
116 109 125 172 175 148 158 156 148 153 152 154 149 151 161 178 155 127 150 182 206 195 183 168 144 136 127 113 133 33 25 100 124 134 358 1 342 187 186 288 313 328 295
106 95 74 105 122 131 131 140 143 155 153 155 158 168 176 162 136 148 177 224 224 216 205 188 179 189 179 180 192 173 234 226 164 171 151 169 201 273 276 286 295 267 293
115 116 100 107 115 128 132 133 141 145 156 160 170 176 180 179 186 189 196 200 198 218 220 196 198 209 215 201 186 197 230 244 213 210 240 209 221 212 214 204 277 290 299
90 86 101 127 132 134 140 133 146 160 168 174 188 191 191 186 189 198 195 210 205 216 205 195 199 216 218 210 202 204 235 237 242 239 229 245 249 227 207 212 196 318 303
88 80 70 71 75 71 66 128 162 178 186 190 185 190 190 185 200 211 200 205 229 233 187 196 211 240 248 236 220 220 240 243 248 248 246 234 253 243 244 225 187 179 296
91 79 71 73 72 70 65 62 64 67 54 58 184 191 194 193 191 179 210 241 274 260 210 234 234 259 262 258 238 248 256 252 264 247 248 255 250 253 245 233 225 199 198
109 94 79 71 72 64 55 55 51 53 47 48 51 56 39 42 58 66 345 220 64 310 310 285 280 278 283 286 278 268 270 267 271 272 260 265 254 260 255 244 234 231 195
115 102 90 83 76 69 59 58 54 60 51 54 61 56 55 55 59 53 43 44 44 33 27 21 10 351 340 335 320 301 303 290 291 292 289 282 281 274 262 254 252 237 222
111 105 92 87 87 79 72 66 61 61 54 59 62 58 54 53 49 44 39 40 40 34 28 33 27 14 3 355 338 323 316 315 308 305 298 289 296 285 277 260 260 254 262
124 114 101 98 94 87 77 69 67 61 59 60 60 59 50 48 45 41 38 39 39 35 28 25 23 17 4 14 13 9 353 334 325 315 310 302 291 274 272 269 255 262 257
132 129 123 114 107 97 89 80 74 72 71 71 66 60 54 49 45 40 36 32 31 26 24 18 7 1 352 11 347 338 328 323 318 313 306 302 304 306 295 284 272 258 259
137 133 125 116 111 111 104 95 88 83 80 74 70 61 53 46 37 30 25 23 11 3 3 354 344 336 326 328 329 330 320 318 312 307 306 301 300 301 322 315 315 305 290
141 134 128 122 114 113 113 109 107 98 85 82 68 57 46 36 22 11 8 360 347 340 332 327 327 313 303 305 312 307 281 278 282 282 281 290 289 295 287 300 303 299 295
137 134 132 125 123 113 105 108 99 100 89 70 57 39 28 15 359 349 333 317 307 310 304 297 292 290 291 296 301 297 284 265 266 263 268 271 279 275 278 277 284 280 274
136 138 138 133 126 117 108 107 87 96 101 71 40 19 0 327 315 309 302 295 288 292 285 281 288 287 281 288 294 294 281 267 263 263 259 263 272 280 285 284 272 277 274
127 131 128 123 118 119 106 104 89 77 73 32 308 299 309 310 308 298 299 285 280 280 281 284 278 281 287 291 301 303 284 271 272 270 260 275 287 302 303 299 270 280 279
123 120 121 130 136 126 109 96 81 65 306 315 318 322 320 313 296 299 289 290 304 309 311 308 303 294 293 297 309 316 315 291 291 271 266 256 283 299 302 302 293 278 290
123 124 122 129 140 134 116 114 104 279 326 335 325 317 313 315 319 318 308 310 307 301 298 294 297 289 295 309 317 317 311 308 305 278 271 271 286 289 297 302 296 301 305
120 111 111 108 81 93 97 82 318 345 341 347 338 332 326 320 312 309 304 309 306 292 291 285 285 290 292 282 304 307 307 306 307 290 294 305 306 303 300 292 296 304 300
99 105 107 99 68 40 42 34 10 10 8 332 312 304 303 304 309 299 290 290 297 294 298 301 304 306 311 304 290 280 284 289 290 289 289 288 290 293 291 295 291 278 273
100 99 104 101 65 50 25 3 353 353 333 320 304 296 289 300 300 289 292 295 277 291 314 315 307 308 307 301 304 310 308 298 288 294 287 272 263 279 279 276 262 264 268
97 88 76 67 27 16 348 334 329 337 332 321 314 310 310 300 298 292 298 294 308 310 309 307 305 304 305 312 313 314 313 310 311 308 293 283 274 272 277 279 279 264 278